User: anonymous   Login
Location: Lake Arresoe
(56.0000°N, 12.5000°E)
Time: 13:17:33
(UTC+02:00)
Language:

Cosmos 2058 - Orbit

View from above orbital plane
View from above orbital plane
View from above satellite
View from above satellite

Ground track
Ground track

The orbit data is extracted from the following two-line orbital elements,

1 20465U 90010A   21265.04435151  .00000362  00000-0  28075-4 0  9993
2 20465  82.4920 189.0895 0017024  84.9795 275.3371 14.98281164718547
Epoch (UTC): 22 September 2021 01:03:51
Eccentricity: 0.0017024
inclination: 82.4920°
perigee height: 560 km
apogee height: 584 km
right ascension of ascending node: 189.0895°
argument of perigee: 84.9795°
revolutions per day: 14.98281164
mean anomaly at epoch: 275.3371°
orbit number at epoch: 71854

The dashed part of the orbit path shows where the satellite is in the earth's shadow,  

DLR